| time (UTC) | temp C | wind direction | speed KPH | gust KPH | rain 1hr cm | rain 24hr cm | rain mn cm | humidity % | barometer mb |
| 20260903143630 | 30 | 114 | 1.6 | 3.2 | 0.00 | 0.00 | 0.00 | 41 | 1013.1 |
| 20260903143125 | 28 | 180 | 0.0 | 3.2 | 0.00 | 0.00 | 0.00 | 43 | 1013.0 |
| 20260903142621 | 29 | 157 | 0.0 | 3.2 | 0.00 | 0.00 | 0.00 | 42 | 1013.0 |
| 20260903142117 | 29 | 75 | 0.0 | 3.2 | 0.00 | 0.00 | 0.00 | 42 | 1013.1 |
| 20260903141613 | 28 | 81 | 0.0 | 0.0 | 0.00 | 0.00 | 0.00 | 44 | 1013.1 |
| 20260903141108 | 27 | 77 | 0.0 | 1.6 | 0.00 | 0.00 | 0.00 | 45 | 1013.0 |
| 20260903140604 | 26 | 69 | 0.0 | 1.6 | 0.00 | 0.00 | 0.00 | 47 | 1012.9 |
| 20260903140059 | 27 | 8 | 0.0 | 0.0 | 0.00 | 0.00 | 0.00 | 45 | 1013.1 |
| 20260903135555 | 26 | 0 | 0.0 | 1.6 | 0.00 | 0.00 | 0.00 | 46 | 1013.1 |
| 20260903135055 | 25 | 32 | 3.2 | 4.8 | 0.00 | 0.00 | 0.00 | 49 | 1013.0 |
| 20260903134554 | 25 | 32 | 0.0 | 3.2 | 0.00 | 0.00 | 0.00 | 48 | 1012.9 |
| 20260903134050 | 25 | 32 | 0.0 | 4.8 | 0.00 | 0.00 | 0.00 | 49 | 1013.1 |
| 20260903133547 | 25 | 14 | 1.6 | 3.2 | 0.00 | 0.00 | 0.00 | 51 | 1012.9 |
| 20260903133043 | 24 | 23 | 3.2 | 3.2 | 0.00 | 0.00 | 0.00 | 53 | 1012.9 |
| 20260903132538 | 23 | 343 | 3.2 | 4.8 | 0.00 | 0.00 | 0.00 | 54 | 1012.7 |
| 20260903132033 | 23 | 90 | 0.0 | 0.0 | 0.00 | 0.00 | 0.00 | 53 | 1012.7 |
| 20260903131532 | 23 | 90 | 0.0 | 3.2 | 0.00 | 0.00 | 0.00 | 53 | 1012.7 |
| 20260903131032 | 22 | 8 | 0.0 | 0.0 | 0.00 | 0.00 | 0.00 | 55 | 1012.6 |
| 20260903130526 | 21 | 26 | 0.0 | 3.2 | 0.00 | 0.00 | 0.00 | 56 | 1012.6 |
| 20260903130021 | 21 | 60 | 1.6 | 3.2 | 0.00 | 0.00 | 0.00 | 56 | 1012.6 |
| 20260903125519 | 21 | 8 | 0.0 | 0.0 | 0.00 | 0.00 | 0.00 | 56 | 1012.5 |
| 20260903125015 | 21 | 8 | 0.0 | 1.6 | 0.00 | 0.00 | 0.00 | 57 | 1012.4 |
| 20260903124509 | 21 | 344 | 0.0 | 3.2 | 0.00 | 0.00 | 0.00 | 59 | 1012.5 |
| 20260903124009 | 21 | 337 | 0.0 | 3.2 | 0.00 | 0.00 | 0.00 | 58 | 1012.9 |
| 20260903123504 | 22 | 168 | 0.0 | 0.0 | 0.00 | 0.00 | 0.00 | 58 | 1012.3 |
| 20260903123001 | 22 | 168 | 0.0 | 1.6 | 0.00 | 0.00 | 0.00 | 58 | 1012.4 |
| 20260903122456 | 21 | 334 | 0.0 | 1.6 | 0.00 | 0.00 | 0.00 | 57 | 1012.5 |
| 20260903121956 | 22 | 106 | 0.0 | 1.6 | 0.00 | 0.00 | 0.00 | 58 | 1012.3 |
| 20260903121450 | 22 | 5 | 0.0 | 0.0 | 0.00 | 0.00 | 0.00 | 59 | 1012.4 |
| 20260903120947 | 22 | 5 | 0.0 | 0.0 | 0.00 | 0.00 | 0.00 | 58 | 1012.4 |
| 20260903120445 | 22 | 5 | 0.0 | 0.0 | 0.00 | 0.00 | 0.00 | 58 | 1012.2 |
| 20260903115943 | 22 | 21 | 3.2 | 3.2 | 0.00 | 0.00 | 0.00 | 57 | 1012.2 |
| 20260903115438 | 22 | 180 | 0.0 | 0.0 | 0.00 | 0.00 | 0.00 | 57 | 1012.2 |
| 20260903114933 | 22 | 180 | 0.0 | 0.0 | 0.00 | 0.00 | 0.00 | 57 | 1012.1 |
| 20260903114428 | 22 | 180 | 0.0 | 0.0 | 0.00 | 0.00 | 0.00 | 56 | 1011.9 |
| 20260903113924 | 22 | 180 | 0.0 | 0.0 | 0.00 | 0.00 | 0.00 | 56 | 1012.1 |
| 20260903113419 | 23 | 198 | 0.0 | 0.0 | 0.00 | 0.00 | 0.00 | 55 | 1012.0 |
| 20260903112915 | 23 | 236 | 0.0 | 3.2 | 0.00 | 0.00 | 0.00 | 55 | 1012.0 |
| 20260903112410 | 23 | 180 | 0.0 | 3.2 | 0.00 | 0.00 | 0.00 | 55 | 1011.6 |
| 20260903111909 | 23 | 173 | 0.0 | 1.6 | 0.00 | 0.00 | 0.00 | 54 | 1011.8 |
| 20260903111409 | 23 | 195 | 0.0 | 1.6 | 0.00 | 0.00 | 0.00 | 54 | 1011.8 |
| 20260903110906 | 23 | 180 | 0.0 | 1.6 | 0.00 | 0.00 | 0.00 | 54 | 1011.8 |
| 20260903110401 | 23 | 198 | 0.0 | 1.6 | 0.00 | 0.00 | 0.00 | 53 | 1011.6 |
| 20260903105855 | 24 | 171 | 3.2 | 4.8 | 0.00 | 0.00 | 0.00 | 53 | 1011.5 |
| 20260903105351 | 24 | 145 | 1.6 | 6.4 | 0.00 | 0.00 | 0.00 | 52 | 1011.4 |
| 20260903104850 | 23 | 166 | 3.2 | 4.8 | 0.00 | 0.00 | 0.00 | 53 | 1011.5 |
| 20260903104345 | 23 | 166 | 3.2 | 4.8 | 0.00 | 0.00 | 0.00 | 53 | 1011.5 |
| 20260903103842 | 23 | 165 | 3.2 | 4.8 | 0.00 | 0.00 | 0.00 | 53 | 1011.8 |
| 20260903103338 | 23 | 152 | 4.8 | 4.8 | 0.00 | 0.00 | 0.00 | 53 | 1012.0 |
| 20260903102833 | 24 | 180 | 0.0 | 3.2 | 0.00 | 0.00 | 0.00 | 53 | 1011.8 |
| 20260903102332 | 23 | 157 | 1.6 | 3.2 | 0.00 | 0.00 | 0.00 | 53 | 1011.9 |
| 20260903101827 | 24 | 151 | 1.6 | 4.8 | 0.00 | 0.00 | 0.00 | 53 | 1012.0 |
| 20260903101322 | 24 | 177 | 4.8 | 6.4 | 0.00 | 0.00 | 0.00 | 52 | 1011.8 |
| 20260903100818 | 25 | 144 | 3.2 | 6.4 | 0.00 | 0.00 | 0.00 | 52 | 1012.1 |
| 20260903100317 | 25 | 187 | 6.4 | 6.4 | 0.00 | 0.00 | 0.00 | 52 | 1012.1 |
| 20260903095815 | 25 | 243 | 1.6 | 4.8 | 0.00 | 0.00 | 0.00 | 51 | 1012.1 |
| 20260903095309 | 25 | 157 | 0.0 | 3.2 | 0.00 | 0.00 | 0.00 | 51 | 1012.3 |
| 20260903094804 | 25 | 180 | 1.6 | 3.2 | 0.00 | 0.00 | 0.00 | 51 | 1012.1 |
| 20260903094259 | 25 | 246 | 0.0 | 3.2 | 0.00 | 0.00 | 0.00 | 52 | 1012.1 |
| 20260903093755 | 24 | 279 | 0.0 | 0.0 | 0.00 | 0.00 | 0.00 | 52 | 1012.0 |
| 20260903093250 | 24 | 279 | 0.0 | 0.0 | 0.00 | 0.00 | 0.00 | 51 | 1012.0 |
| 20260903092744 | 24 | 254 | 0.0 | 1.6 | 0.00 | 0.00 | 0.00 | 50 | 1011.9 |
| 20260903092239 | 24 | 90 | 0.0 | 0.0 | 0.00 | 0.00 | 0.00 | 50 | 1011.9 |
| 20260903091738 | 24 | 90 | 0.0 | 0.0 | 0.00 | 0.00 | 0.00 | 50 | 1011.9 |
| 20260903091232 | 25 | 165 | 0.0 | 0.0 | 0.00 | 0.00 | 0.00 | 49 | 1011.8 |
| 20260903090728 | 25 | 165 | 0.0 | 0.0 | 0.00 | 0.00 | 0.00 | 49 | 1011.8 |
| 20260903090226 | 25 | 165 | 0.0 | 0.0 | 0.00 | 0.00 | 0.00 | 49 | 1011.8 |
| 20260903085725 | 25 | 165 | 0.0 | 1.6 | 0.00 | 0.00 | 0.00 | 48 | 1011.8 |
| 20260903085221 | 25 | 225 | 0.0 | 4.8 | 0.00 | 0.00 | 0.00 | 48 | 1012.0 |
| 20260903084718 | 25 | 195 | 0.0 | 1.6 | 0.00 | 0.00 | 0.00 | 48 | 1011.6 |
| 20260903084214 | 25 | 270 | 0.0 | 1.6 | 0.00 | 0.00 | 0.00 | 48 | 1011.9 |
| 20260903083709 | 23 | 341 | 0.0 | 3.2 | 0.00 | 0.00 | 0.00 | 49 | 1011.9 |
| 20260903083203 | 23 | 0 | 0.0 | 3.2 | 0.00 | 0.00 | 0.00 | 49 | 1011.6 |
| 20260903082657 | 24 | 6 | 1.6 | 3.2 | 0.00 | 0.00 | 0.00 | 48 | 1011.6 |
| 20260903082154 | 25 | 8 | 0.0 | 0.0 | 0.00 | 0.00 | 0.00 | 47 | 1012.0 |
| 20260903081648 | 25 | 165 | 0.0 | 0.0 | 0.00 | 0.00 | 0.00 | 47 | 1011.6 |
| 20260903081144 | 25 | 198 | 0.0 | 3.2 | 0.00 | 0.00 | 0.00 | 46 | 1012.0 |
| 20260903080640 | 26 | 206 | 1.6 | 4.8 | 0.00 | 0.00 | 0.00 | 46 | 1011.8 |
| 20260903080137 | 26 | 165 | 1.6 | 4.8 | 0.00 | 0.00 | 0.00 | 45 | 1011.9 |
| 20260903075631 | 26 | 154 | 3.2 | 4.8 | 0.00 | 0.00 | 0.00 | 45 | 1011.8 |
| 20260903075126 | 26 | 160 | 0.0 | 4.8 | 0.00 | 0.00 | 0.00 | 45 | 1011.8 |
| 20260903074625 | 26 | 173 | 1.6 | 4.8 | 0.00 | 0.00 | 0.00 | 45 | 1011.8 |
| 20260903074120 | 26 | 186 | 0.0 | 4.8 | 0.00 | 0.00 | 0.00 | 45 | 1011.9 |
| 20260903073616 | 26 | 161 | 3.2 | 4.8 | 0.00 | 0.00 | 0.00 | 45 | 1011.9 |
| 20260903073111 | 26 | 203 | 1.6 | 3.2 | 0.00 | 0.00 | 0.00 | 45 | 1011.9 |
| 20260903072607 | 25 | 84 | 0.0 | 3.2 | 0.00 | 0.00 | 0.00 | 46 | 1011.8 |
| 20260903072103 | 25 | 127 | 0.0 | 3.2 | 0.00 | 0.00 | 0.00 | 46 | 1012.0 |
| 20260903071559 | 25 | 168 | 0.0 | 1.6 | 0.00 | 0.00 | 0.00 | 45 | 1012.1 |
| 20260903071054 | 26 | 169 | 3.2 | 4.8 | 0.00 | 0.00 | 0.00 | 46 | 1011.8 |
| 20260903070553 | 27 | 188 | 0.0 | 1.6 | 0.00 | 0.00 | 0.00 | 44 | 1011.8 |
| 20260903070050 | 28 | 188 | 0.0 | 1.6 | 0.00 | 0.00 | 0.00 | 43 | 1011.8 |
| 20260903065548 | 28 | 154 | 1.6 | 3.2 | 0.00 | 0.00 | 0.00 | 42 | 1011.9 |
| 20260903065043 | 28 | 173 | 0.0 | 1.6 | 0.00 | 0.00 | 0.00 | 42 | 1011.9 |
| 20260903064543 | 28 | 210 | 3.2 | 3.2 | 0.00 | 0.00 | 0.00 | 43 | 1011.9 |
| 20260903064038 | 28 | 183 | 4.8 | 4.8 | 0.00 | 0.00 | 0.00 | 43 | 1012.0 |
| 20260903063533 | 28 | 180 | 0.0 | 4.8 | 0.00 | 0.00 | 0.00 | 43 | 1012.1 |
| 20260903063029 | 27 | 237 | 0.0 | 3.2 | 0.00 | 0.00 | 0.00 | 44 | 1011.9 |
| 20260903062524 | 27 | 186 | 0.0 | 3.2 | 0.00 | 0.00 | 0.00 | 45 | 1011.9 |
| 20260903062019 | 27 | 180 | 1.6 | 4.8 | 0.00 | 0.00 | 0.00 | 45 | 1012.0 |
| 20260903061515 | 27 | 106 | 0.0 | 3.2 | 0.00 | 0.00 | 0.00 | 43 | 1011.8 |
| 20260903061009 | 27 | 160 | 0.0 | 1.6 | 0.00 | 0.00 | 0.00 | 43 | 1012.1 |
| 20260903060503 | 27 | 157 | 0.0 | 0.0 | 0.00 | 0.00 | 0.00 | 44 | 1011.9 |
| 20260903060004 | 27 | 157 | 0.0 | 0.0 | 0.00 | 0.00 | 0.00 | 43 | 1012.3 |
| 20260903055501 | 27 | 157 | 0.0 | 1.6 | 0.00 | 0.00 | 0.00 | 43 | 1012.1 |
| 20260903055000 | 28 | 176 | 0.0 | 3.2 | 0.00 | 0.00 | 0.00 | 43 | 1012.2 |
| 20260903054455 | 28 | 188 | 0.0 | 3.2 | 0.00 | 0.00 | 0.00 | 42 | 1012.0 |
| 20260903053951 | 28 | 194 | 1.6 | 3.2 | 0.00 | 0.00 | 0.00 | 42 | 1012.0 |
| 20260903053450 | 28 | 229 | 0.0 | 4.8 | 0.00 | 0.00 | 0.00 | 43 | 1012.3 |
| 20260903052948 | 27 | 228 | 3.2 | 4.8 | 0.00 | 0.00 | 0.00 | 43 | 1012.2 |
| 20260903052443 | 27 | 207 | 0.0 | 4.8 | 0.00 | 0.00 | 0.00 | 43 | 1012.0 |
| 20260903051938 | 28 | 216 | 3.2 | 4.8 | 0.00 | 0.00 | 0.00 | 42 | 1011.9 |
| 20260903051433 | 28 | 239 | 3.2 | 4.8 | 0.00 | 0.00 | 0.00 | 41 | 1012.3 |
| 20260903050929 | 28 | 212 | 3.2 | 4.8 | 0.00 | 0.00 | 0.00 | 41 | 1012.1 |
| 20260903050428 | 28 | 250 | 3.2 | 4.8 | 0.00 | 0.00 | 0.00 | 42 | 1012.3 |
| 20260903045922 | 28 | 216 | 0.0 | 3.2 | 0.00 | 0.00 | 0.00 | 42 | 1012.5 |
| 20260903045418 | 28 | 192 | 1.6 | 3.2 | 0.00 | 0.00 | 0.00 | 41 | 1012.3 |
| 20260903044915 | 28 | 199 | 0.0 | 3.2 | 0.00 | 0.00 | 0.00 | 41 | 1012.4 |
| 20260903044415 | 28 | 338 | 4.8 | 6.4 | 0.00 | 0.00 | 0.00 | 40 | 1012.3 |
| 20260903043912 | 29 | 195 | 1.6 | 3.2 | 0.00 | 0.00 | 0.00 | 40 | 1012.1 |
| 20260903043407 | 29 | 157 | 0.0 | 3.2 | 0.00 | 0.00 | 0.00 | 39 | 1012.2 |
| 20260903042905 | 29 | 209 | 1.6 | 3.2 | 0.00 | 0.00 | 0.00 | 39 | 1012.1 |
| 20260903042401 | 28 | 240 | 0.0 | 3.2 | 0.00 | 0.00 | 0.00 | 39 | 1012.0 |
| 20260903041856 | 28 | 246 | 0.0 | 3.2 | 0.00 | 0.00 | 0.00 | 40 | 1012.1 |
| 20260903041352 | 28 | 243 | 0.0 | 1.6 | 0.00 | 0.00 | 0.00 | 41 | 1012.2 |
| 20260903040848 | 28 | 235 | 0.0 | 3.2 | 0.00 | 0.00 | 0.00 | 41 | 1012.2 |
| 20260903040347 | 28 | 240 | 0.0 | 1.6 | 0.00 | 0.00 | 0.00 | 41 | 1012.0 |
| 20260903035843 | 28 | 213 | 3.2 | 4.8 | 0.00 | 0.00 | 0.00 | 42 | 1011.9 |
| 20260903035338 | 28 | 233 | 0.0 | 3.2 | 0.00 | 0.00 | 0.00 | 44 | 1011.9 |
| 20260903034834 | 28 | 254 | 1.6 | 3.2 | 0.00 | 0.00 | 0.00 | 44 | 1012.1 |
| 20260903034329 | 29 | 243 | 0.0 | 3.2 | 0.00 | 0.00 | 0.00 | 42 | 1012.0 |
| 20260903033824 | 28 | 195 | 0.0 | 1.6 | 0.00 | 0.00 | 0.00 | 42 | 1011.8 |
| 20260903033319 | 29 | 237 | 0.0 | 3.2 | 0.00 | 0.00 | 0.00 | 41 | 1012.0 |
| 20260903032818 | 29 | 249 | 0.0 | 3.2 | 0.00 | 0.00 | 0.00 | 40 | 1012.0 |
| 20260903032315 | 29 | 240 | 0.0 | 3.2 | 0.00 | 0.00 | 0.00 | 39 | 1011.9 |
| 20260903031810 | 30 | 187 | 1.6 | 1.6 | 0.00 | 0.00 | 0.00 | 38 | 1011.8 |
| 20260903031309 | 30 | 180 | 0.0 | 1.6 | 0.00 | 0.00 | 0.00 | 37 | 1011.6 |
| 20260903030805 | 30 | 209 | 0.0 | 4.8 | 0.00 | 0.00 | 0.00 | 37 | 1011.5 |
| 20260903030301 | 30 | 148 | 0.0 | 3.2 | 0.00 | 0.00 | 0.00 | 36 | 1011.6 |
| 20260903025756 | 30 | 165 | 1.6 | 8.0 | 0.00 | 0.00 | 0.00 | 36 | 1011.5 |
| 20260903025252 | 31 | 161 | 4.8 | 8.0 | 0.00 | 0.00 | 0.00 | 36 | 1011.3 |
| 20260903024746 | 31 | 177 | 4.8 | 6.4 | 0.00 | 0.00 | 0.00 | 35 | 1011.4 |
| 20260903024245 | 31 | 131 | 3.2 | 3.2 | 0.00 | 0.00 | 0.00 | 35 | 1011.4 |
| 20260903023741 | 31 | 152 | 3.2 | 4.8 | 0.00 | 0.00 | 0.00 | 35 | 1011.1 |
| 20260903023236 | 31 | 146 | 3.2 | 6.4 | 0.00 | 0.00 | 0.00 | 35 | 1010.9 |
| 20260903022731 | 31 | 180 | 3.2 | 6.4 | 0.00 | 0.00 | 0.00 | 35 | 1011.0 |
| 20260903022230 | 31 | 166 | 1.6 | 6.4 | 0.00 | 0.00 | 0.00 | 35 | 1010.8 |
| 20260903021725 | 31 | 168 | 3.2 | 6.4 | 0.00 | 0.00 | 0.00 | 35 | 1010.9 |
| 20260903021220 | 31 | 188 | 3.2 | 6.4 | 0.00 | 0.00 | 0.00 | 35 | 1010.8 |
| 20260903020720 | 31 | 158 | 0.0 | 4.8 | 0.00 | 0.00 | 0.00 | 35 | 1011.0 |
| 20260903020214 | 31 | 180 | 0.0 | 4.8 | 0.00 | 0.00 | 0.00 | 35 | 1010.9 |
| 20260903015709 | 32 | 180 | 1.6 | 4.8 | 0.00 | 0.00 | 0.00 | 34 | 1010.8 |
| 20260903015205 | 32 | 180 | 0.0 | 4.8 | 0.00 | 0.00 | 0.00 | 34 | 1010.6 |
| 20260903014701 | 32 | 180 | 1.6 | 3.2 | 0.00 | 0.00 | 0.00 | 34 | 1010.8 |
| 20260903014200 | 32 | 192 | 1.6 | 3.2 | 0.00 | 0.00 | 0.00 | 34 | 1010.9 |
| 20260903013655 | 32 | 163 | 3.2 | 4.8 | 0.00 | 0.00 | 0.00 | 33 | 1010.6 |
| 20260903013154 | 32 | 195 | 3.2 | 8.0 | 0.00 | 0.00 | 0.00 | 33 | 1010.6 |
| 20260903012653 | 32 | 180 | 3.2 | 6.4 | 0.00 | 0.00 | 0.00 | 33 | 1010.6 |
| 20260903012152 | 32 | 172 | 0.0 | 4.8 | 0.00 | 0.00 | 0.00 | 32 | 1010.4 |
| 20260903011653 | 33 | 188 | 1.6 | 9.7 | 0.00 | 0.00 | 0.00 | 32 | 1010.6 |
| 20260903011152 | 33 | 180 | 3.2 | 6.4 | 0.00 | 0.00 | 0.00 | 31 | 1010.4 |
| 20260903010647 | 33 | 167 | 4.8 | 8.0 | 0.00 | 0.00 | 0.00 | 31 | 1010.4 |
| 20260903010146 | 33 | 169 | 4.8 | 9.7 | 0.00 | 0.00 | 0.00 | 31 | 1010.1 |
| 20260903005641 | 34 | 160 | 1.6 | 8.0 | 0.00 | 0.00 | 0.00 | 31 | 1010.6 |
| 20260903005136 | 35 | 176 | 6.4 | 12.9 | 0.00 | 0.00 | 0.00 | 30 | 1010.3 |
| 20260903004631 | 35 | 196 | 4.8 | 12.9 | 0.00 | 0.00 | 0.00 | 29 | 1010.4 |
| 20260903004126 | 35 | 177 | 4.8 | 11.3 | 0.00 | 0.00 | 0.00 | 29 | 1010.4 |
| 20260903003622 | 35 | 172 | 4.8 | 12.9 | 0.00 | 0.00 | 0.00 | 29 | 1010.6 |
| 20260903003117 | 35 | 164 | 11.3 | 16.1 | 0.00 | 0.00 | 0.00 | 29 | 1010.8 |
| 20260903002612 | 35 | 189 | 6.4 | 12.9 | 0.00 | 0.00 | 0.00 | 29 | 1010.6 |
| 20260903002106 | 35 | 184 | 6.4 | 11.3 | 0.00 | 0.00 | 0.00 | 29 | 1010.4 |
| 20260903001601 | 35 | 193 | 4.8 | 11.3 | 0.00 | 0.00 | 0.00 | 30 | 1010.6 |
| 20260903001055 | 35 | 159 | 3.2 | 8.0 | 0.00 | 0.00 | 0.00 | 29 | 1010.6 |
| 20260903000551 | 35 | 171 | 9.7 | 9.7 | 0.00 | 0.00 | 0.00 | 28 | 1010.8 |
| 20260903000049 | 35 | 193 | 8.0 | 16.1 | 0.00 | 0.00 | 0.00 | 28 | 1010.4 |
| 20260902235544 | 35 | 184 | 3.2 | 9.7 | 0.00 | 0.00 | 0.00 | 27 | 1010.8 |
| 20260902235039 | 35 | 177 | 4.8 | 16.1 | 0.00 | 0.00 | 0.00 | 27 | 1010.9 |
| 20260902234538 | 36 | 173 | 9.7 | 14.5 | 0.00 | 0.00 | 0.00 | 28 | 1010.7 |
| 20260902234037 | 35 | 182 | 4.8 | 11.3 | 0.00 | 0.00 | 0.00 | 26 | 1010.6 |
| 20260902233532 | 36 | 150 | 4.8 | 6.4 | 0.00 | 0.00 | 0.00 | 27 | 1010.7 |
| 20260902233027 | 35 | 174 | 11.3 | 14.5 | 0.00 | 0.00 | 0.00 | 25 | 1010.7 |
| 20260902232526 | 35 | 174 | 11.3 | 12.9 | 0.00 | 0.00 | 0.00 | 25 | 1010.3 |
| 20260902232020 | 36 | 190 | 0.0 | 14.5 | 0.00 | 0.00 | 0.00 | 24 | 1010.6 |
| 20260902231515 | 36 | 234 | 6.4 | 6.4 | 0.00 | 0.00 | 0.00 | 25 | 1010.7 |
| 20260902231009 | 35 | 206 | 3.2 | 9.7 | 0.00 | 0.00 | 0.00 | 25 | 1010.9 |
| 20260902230509 | 35 | 184 | 6.4 | 9.7 | 0.00 | 0.00 | 0.00 | 25 | 1010.7 |
| 20260902230003 | 35 | 208 | 3.2 | 12.9 | 0.00 | 0.00 | 0.00 | 25 | 1010.9 |
| 20260902225458 | 35 | 185 | 3.2 | 8.0 | 0.00 | 0.00 | 0.00 | 26 | 1010.6 |
| 20260902224957 | 35 | 163 | 6.4 | 9.7 | 0.00 | 0.00 | 0.00 | 27 | 1010.7 |
| 20260902224451 | 35 | 182 | 6.4 | 12.9 | 0.00 | 0.00 | 0.00 | 26 | 1011.0 |
| 20260902223948 | 35 | 164 | 6.4 | 9.7 | 0.00 | 0.00 | 0.00 | 26 | 1011.0 |
| 20260902223443 | 35 | 177 | 4.8 | 9.7 | 0.00 | 0.00 | 0.00 | 27 | 1011.1 |
| 20260902222943 | 35 | 156 | 8.0 | 16.1 | 0.00 | 0.00 | 0.00 | 27 | 1011.0 |
| 20260902222441 | 35 | 181 | 8.0 | 12.9 | 0.00 | 0.00 | 0.00 | 26 | 1010.9 |
| 20260902221941 | 35 | 157 | 8.0 | 11.3 | 0.00 | 0.00 | 0.00 | 26 | 1010.8 |
| 20260902221439 | 35 | 185 | 8.0 | 11.3 | 0.00 | 0.00 | 0.00 | 25 | 1011.1 |
| 20260902220936 | 35 | 161 | 8.0 | 11.3 | 0.00 | 0.00 | 0.00 | 26 | 1011.3 |
| 20260902220435 | 35 | 178 | 6.4 | 11.3 | 0.00 | 0.00 | 0.00 | 25 | 1011.2 |
| 20260902215930 | 35 | 206 | 0.0 | 9.7 | 0.00 | 0.00 | 0.00 | 26 | 1011.1 |
| 20260902215426 | 35 | 149 | 6.4 | 11.3 | 0.00 | 0.00 | 0.00 | 27 | 1011.2 |
| 20260902214922 | 35 | 195 | 4.8 | 8.0 | 0.00 | 0.00 | 0.00 | 27 | 1011.4 |
| 20260902214420 | 35 | 189 | 4.8 | 9.7 | 0.00 | 0.00 | 0.00 | 28 | 1011.4 |
| 20260902213915 | 35 | 203 | 4.8 | 11.3 | 0.00 | 0.00 | 0.00 | 26 | 1011.3 |
| 20260902213412 | 35 | 223 | 6.4 | 12.9 | 0.00 | 0.00 | 0.00 | 25 | 1011.5 |
| 20260902212910 | 35 | 220 | 6.4 | 12.9 | 0.00 | 0.00 | 0.00 | 25 | 1011.8 |
| 20260902212406 | 35 | 244 | 6.4 | 16.1 | 0.00 | 0.00 | 0.00 | 24 | 1011.5 |
| 20260902211902 | 35 | 235 | 8.0 | 17.7 | 0.00 | 0.00 | 0.00 | 26 | 1011.9 |
| 20260902211358 | 35 | 223 | 6.4 | 17.7 | 0.00 | 0.00 | 0.00 | 27 | 1012.0 |
| 20260902210853 | 34 | 236 | 4.8 | 24.1 | 0.00 | 0.00 | 0.00 | 26 | 1011.9 |
| 20260902210352 | 35 | 212 | 8.0 | 25.7 | 0.00 | 0.00 | 0.00 | 25 | 1012.1 |
| 20260902205851 | 35 | 243 | 14.5 | 35.4 | 0.00 | 0.00 | 0.00 | 27 | 1012.3 |
| 20260902205345 | 33 | 242 | 20.9 | 35.4 | 0.00 | 0.00 | 0.00 | 30 | 1012.0 |
| 20260902204842 | 33 | 104 | 0.0 | 16.1 | 0.00 | 0.00 | 0.00 | 33 | 1012.4 |
| 20260902204336 | 33 | 222 | 17.7 | 27.4 | 0.00 | 0.00 | 0.00 | 33 | 1012.3 |
| 20260902203832 | 34 | 173 | 8.0 | 25.7 | 0.00 | 0.00 | 0.00 | 32 | 1012.2 |
| 20260902203326 | 34 | 206 | 1.6 | 22.5 | 0.00 | 0.00 | 0.00 | 34 | 1012.3 |
| 20260902202826 | 34 | 244 | 4.8 | 27.4 | 0.00 | 0.00 | 0.00 | 34 | 1012.5 |
| 20260902202322 | 36 | 195 | 19.3 | 24.1 | 0.00 | 0.00 | 0.00 | 28 | 1012.4 |
| 20260902201818 | 36 | 291 | 0.0 | 4.8 | 0.00 | 0.00 | 0.00 | 25 | 1012.5 |
| 20260902201313 | 37 | 219 | 8.0 | 12.9 | 0.00 | 0.00 | 0.00 | 25 | 1012.3 |
| 20260902200808 | 37 | 208 | 4.8 | 14.5 | 0.00 | 0.00 | 0.00 | 24 | 1012.3 |
| 20260902200303 | 37 | 165 | 8.0 | 14.5 | 0.00 | 0.00 | 0.00 | 26 | 1012.3 |
| 20260902195758 | 37 | 152 | 4.8 | 11.3 | 0.00 | 0.00 | 0.00 | 26 | 1012.6 |
| 20260902195257 | 37 | 345 | 6.4 | 9.7 | 0.00 | 0.00 | 0.00 | 26 | 1012.4 |
| 20260902194752 | 37 | 24 | 0.0 | 9.7 | 0.00 | 0.00 | 0.00 | 25 | 1012.5 |
| 20260902194247 | 37 | 300 | 0.0 | 6.4 | 0.00 | 0.00 | 0.00 | 26 | 1012.7 |
| 20260902193743 | 37 | 196 | 8.0 | 16.1 | 0.00 | 0.00 | 0.00 | 26 | 1012.6 |
| 20260902193238 | 37 | 235 | 0.0 | 6.4 | 0.00 | 0.00 | 0.00 | 27 | 1013.0 |
| 20260902192736 | 36 | 62 | 4.8 | 8.0 | 0.00 | 0.00 | 0.00 | 28 | 1013.0 |
| 20260902192236 | 37 | 239 | 4.8 | 4.8 | 0.00 | 0.00 | 0.00 | 26 | 1013.0 |
| 20260902191730 | 36 | 192 | 3.2 | 14.5 | 0.00 | 0.00 | 0.00 | 27 | 1013.0 |
| 20260902191225 | 37 | 171 | 8.0 | 8.0 | 0.00 | 0.00 | 0.00 | 26 | 1013.2 |
| 20260902190721 | 37 | 270 | 0.0 | 9.7 | 0.00 | 0.00 | 0.00 | 27 | 1013.1 |
| 20260902190220 | 36 | 0 | 3.2 | 6.4 | 0.00 | 0.00 | 0.00 | 27 | 1013.3 |
| 20260902185716 | 36 | 262 | 0.0 | 12.9 | 0.00 | 0.00 | 0.00 | 28 | 1013.3 |
| 20260902185212 | 37 | 235 | 3.2 | 8.0 | 0.00 | 0.00 | 0.00 | 28 | 1013.5 |
| 20260902184707 | 36 | 225 | 0.0 | 8.0 | 0.00 | 0.00 | 0.00 | 28 | 1013.6 |
| 20260902184202 | 36 | 190 | 3.2 | 8.0 | 0.00 | 0.00 | 0.00 | 28 | 1013.6 |
| 20260902183658 | 36 | 180 | 4.8 | 11.3 | 0.00 | 0.00 | 0.00 | 28 | 1013.6 |
| 20260902183154 | 36 | 194 | 1.6 | 8.0 | 0.00 | 0.00 | 0.00 | 29 | 1014.1 |
| 20260902182650 | 36 | 166 | 4.8 | 8.0 | 0.00 | 0.00 | 0.00 | 30 | 1014.2 |
| 20260902182147 | 36 | 191 | 9.7 | 14.5 | 0.00 | 0.00 | 0.00 | 30 | 1014.2 |
| 20260902181642 | 35 | 114 | 3.2 | 8.0 | 0.00 | 0.00 | 0.00 | 30 | 1014.1 |
| 20260902181142 | 35 | 168 | 6.4 | 6.4 | 0.00 | 0.00 | 0.00 | 30 | 1014.5 |
| 20260902180642 | 36 | 161 | 0.0 | 6.4 | 0.00 | 0.00 | 0.00 | 29 | 1014.5 |
| 20260902180138 | 35 | 156 | 3.2 | 12.9 | 0.00 | 0.00 | 0.00 | 31 | 1014.5 |
| 20260902175637 | 35 | 197 | 4.8 | 6.4 | 0.00 | 0.00 | 0.00 | 30 | 1014.2 |
| 20260902175133 | 34 | 348 | 0.0 | 8.0 | 0.00 | 0.00 | 0.00 | 32 | 1014.4 |
| 20260902174629 | 35 | 0 | 0.0 | 4.8 | 0.00 | 0.00 | 0.00 | 32 | 1014.8 |
| 20260902174125 | 35 | 150 | 4.8 | 6.4 | 0.00 | 0.00 | 0.00 | 31 | 1014.6 |
| 20260902173620 | 35 | 262 | 8.0 | 8.0 | 0.00 | 0.00 | 0.00 | 32 | 1014.7 |
| 20260902173115 | 34 | 183 | 4.8 | 9.7 | 0.00 | 0.00 | 0.00 | 33 | 1015.0 |
| 20260902172609 | 35 | 156 | 11.3 | 11.3 | 0.00 | 0.00 | 0.00 | 31 | 1015.0 |
| 20260902172103 | 35 | 26 | 4.8 | 6.4 | 0.00 | 0.00 | 0.00 | 31 | 1015.1 |
| 20260902171559 | 34 | 114 | 1.6 | 6.4 | 0.00 | 0.00 | 0.00 | 33 | 1015.3 |
| 20260902171055 | 34 | 154 | 1.6 | 4.8 | 0.00 | 0.00 | 0.00 | 33 | 1015.0 |
| 20260902170550 | 33 | 181 | 9.7 | 9.7 | 0.00 | 0.00 | 0.00 | 33 | 1015.3 |
| 20260902170045 | 33 | 103 | 0.0 | 8.0 | 0.00 | 0.00 | 0.00 | 35 | 1015.3 |
| 20260902165539 | 35 | 151 | 0.0 | 3.2 | 0.00 | 0.00 | 0.00 | 32 | 1015.8 |
| 20260902165034 | 33 | 173 | 0.0 | 6.4 | 0.00 | 0.00 | 0.00 | 34 | 1015.3 |
| 20260902164529 | 32 | 270 | 0.0 | 4.8 | 0.00 | 0.00 | 0.00 | 36 | 1015.5 |
| 20260902164028 | 32 | 23 | 3.2 | 4.8 | 0.00 | 0.00 | 0.00 | 37 | 1015.3 |
| 20260902163524 | 31 | 7 | 1.6 | 3.2 | 0.00 | 0.00 | 0.00 | 37 | 1015.4 |
| 20260902163021 | 32 | 172 | 0.0 | 3.2 | 0.00 | 0.00 | 0.00 | 36 | 1015.5 |
| 20260902162516 | 32 | 157 | 0.0 | 3.2 | 0.00 | 0.00 | 0.00 | 37 | 1015.5 |
| 20260902162011 | 31 | 166 | 0.0 | 3.2 | 0.00 | 0.00 | 0.00 | 37 | 1015.5 |
| 20260902161506 | 31 | 90 | 0.0 | 3.2 | 0.00 | 0.00 | 0.00 | 37 | 1015.5 |
| 20260902161002 | 31 | 304 | 0.0 | 4.8 | 0.00 | 0.00 | 0.00 | 38 | 1015.8 |
| 20260902160458 | 31 | 0 | 3.2 | 4.8 | 0.00 | 0.00 | 0.00 | 39 | 1015.6 |
| 20260902155955 | 31 | 7 | 1.6 | 4.8 | 0.00 | 0.00 | 0.00 | 39 | 1015.8 |
| 20260902155451 | 31 | 276 | 0.0 | 3.2 | 0.00 | 0.00 | 0.00 | 39 | 1015.5 |
| 20260902154945 | 30 | 60 | 0.0 | 4.8 | 0.00 | 0.00 | 0.00 | 41 | 1015.9 |
| 20260902154440 | 30 | 300 | 0.0 | 4.8 | 0.00 | 0.00 | 0.00 | 42 | 1015.6 |
| 20260902153940 | 29 | 0 | 4.8 | 4.8 | 0.00 | 0.00 | 0.00 | 42 | 1015.7 |
| 20260902153438 | 29 | 60 | 0.0 | 4.8 | 0.00 | 0.00 | 0.00 | 43 | 1015.6 |
| 20260902152934 | 28 | 90 | 4.8 | 8.0 | 0.00 | 0.00 | 0.00 | 44 | 1015.7 |
| 20260902152430 | 29 | 45 | 3.2 | 4.8 | 0.00 | 0.00 | 0.00 | 42 | 1015.8 |
| 20260902151925 | 28 | 90 | 1.6 | 4.8 | 0.00 | 0.00 | 0.00 | 45 | 1015.7 |
| 20260902151421 | 28 | 90 | 0.0 | 1.6 | 0.00 | 0.00 | 0.00 | 46 | 1015.8 |
| 20260902150915 | 26 | 63 | 3.2 | 4.8 | 0.00 | 0.00 | 0.00 | 49 | 1015.8 |
| 20260902150411 | 26 | 84 | 3.2 | 6.4 | 0.00 | 0.00 | 0.00 | 49 | 1015.7 |
| 20260902145910 | 26 | 59 | 4.8 | 6.4 | 0.00 | 0.00 | 0.00 | 48 | 1015.7 |
| 20260902145406 | 27 | 123 | 3.2 | 4.8 | 0.00 | 0.00 | 0.00 | 48 | 1015.6 |
| 20260902144901 | 27 | 23 | 3.2 | 3.2 | 0.00 | 0.00 | 0.00 | 48 | 1015.8 |
| 20260902144357 | 27 | 12 | 0.0 | 4.8 | 0.00 | 0.00 | 0.00 | 47 | 1015.7 |